Overview Statistics Trail Chart Weather Telemetry Raw packets
 

This is the latest recevied weather packets stored in our database for station/object 4S6DRJ-13. If no packets are shown the sender has not sent any weather packets the latest 10 day(s).

<< 317 318 319 320 321 322 323 >>
Time Temp. Humidity Pressure Rain* Wind** Luminosity Snow
1787996881 30.56° C 73% 1008 hPa 0 mm 4.47 m/s, 313° 618 W/m² -
1787996820 30.56° C 73% 1008 hPa 0 mm 4.02 m/s, 234° 644 W/m² -
1787996760 30.56° C 73% 1008 hPa 0 mm 2.68 m/s, 279° 316 W/m² -
1787996698 31.11° C 73% 1007.9 hPa 0 mm 1.34 m/s, 209° 667 W/m² -
1787996637 31.11° C 73% 1008 hPa 0 mm 2.24 m/s, 298° 414 W/m² -
1787996576 31.11° C 73% 1008.2 hPa 0 mm 2.24 m/s, 319° 327 W/m² -
1787996515 31.11° C 73% 1008.1 hPa 0 mm 0.89 m/s, 192° 675 W/m² -
1787996454 31.11° C 72% 1008 hPa 0 mm 2.68 m/s, 302° 373 W/m² -
1787996393 31.11° C 73% 1007.9 hPa 0 mm 0.89 m/s, 340° 635 W/m² -
1787996332 31.11° C 73% 1008.1 hPa 0 mm 1.34 m/s, 303° 483 W/m² -
1787996272 31.11° C 72% 1008 hPa 0 mm 2.24 m/s, 277° 301 W/m² -
1787996210 31.11° C 73% 1008.2 hPa 0 mm 1.79 m/s, 306° 709 W/m² -
1787996149 31.11° C 73% 1008 hPa 0 mm 0.89 m/s, 100° 769 W/m² -
1787996088 31.11° C 73% 1008.1 hPa 0 mm 1.79 m/s, 256° 336 W/m² -
1787996027 31.11° C 73% 1008.2 hPa 0 mm 1.34 m/s, 247° 447 W/m² -
1787995974 31.11° C 74% 1008.1 hPa 0 mm 1.34 m/s, 295° 639 W/m² -
1787995904 31.11° C 74% 1008 hPa 0 mm 2.24 m/s, 241° 426 W/m² -
1787995844 30.56° C 74% 1008.1 hPa 0 mm 0.89 m/s, 249° 488 W/m² -
1787995782 30.56° C 75% 1008.1 hPa 0 mm 1.79 m/s, 334° 838 W/m² -
1787995722 30.56° C 75% 1008.1 hPa 0 mm 0.45 m/s, 256° 801 W/m² -
1787995660 30.56° C 75% 1008.1 hPa 0 mm 1.34 m/s, 174° 696 W/m² -
1787995600 30.56° C 74% 1008 hPa 0 mm 1.79 m/s, 262° 341 W/m² -
1787995538 30.56° C 74% 1008.2 hPa 0 mm 1.34 m/s, 190° 506 W/m² -
1787995478 30.56° C 75% 1008.1 hPa 0 mm 1.79 m/s, 217° 756 W/m² -
1787995417 30.56° C 74% 1008.3 hPa 0 mm 0.89 m/s, 278° 552 W/m² -

* Rain latest hour (hover to see other rain measurements)
** Current wind speed in m/s (hover to see current wind gust speed)